Location: Edoum�
(0.9447°N, 10.6482°E)
Time: 21:50:16
(UTC+00:00)

PEGASUS R/B - Visible Passes

Search period start: 29 September 2020 00:00
Search period end: 09 October 2020 00:00
Orbit: 297 x 3600 km, 105.6° (Epoch: 28 September)

Date Brightness Start Highest point End Pass type
(mag) Time Alt. Az. Time Alt. Az. Time Alt. Az.
29 Sep 9.6 03:02:04 10° ENE 03:17:42 32° ESE 03:31:43 10° SSE visible
30 Sep 10.0 02:19:19 10° E 02:27:06 14° ESE 02:34:17 10° SE visible
30 Sep 8.7 04:08:51 10° NNE 04:27:36 67° ESE 04:44:56 10° S visible
01 Oct 9.4 03:19:56 10° NE 03:36:56 39° ESE 03:51:56 10° S visible
02 Oct 9.9 02:34:38 10° ENE 02:46:09 19° ESE 02:56:23 10° SSE visible
02 Oct 8.6 04:27:45 10° NNE 04:46:49 79° ESE 05:04:17 10° SSW visible
03 Oct 9.1 03:38:05 10° NE 03:56:06 48° ESE 04:11:44 10° S visible
04 Oct 9.7 02:51:11 10° ENE 03:05:10 25° ESE 03:17:14 10° SSE visible
05 Oct 8.9 03:56:24 10° NE 04:15:10 58° ESE 04:31:13 10° S visible
06 Oct 9.6 03:08:21 10° NE 03:24:07 32° ESE 03:37:24 10° SSE visible
07 Oct 10.0 02:25:35 10° E 02:32:58 14° ESE 02:39:39 10° SE visible
07 Oct 8.7 04:14:50 10° NNE 04:34:07 68° ESE 04:50:23 10° S visible
08 Oct 9.3 03:25:52 10° NE 03:43:00 40° ESE 03:57:06 10° S visible
